******** Week 352 almanac for PRN-1 ******** ID: 1 Health: 0 Eccentricity: 0.001346111298 Time of Applicability(s): 589824 Orbital Inclination(rad): 0.9583748704 Rate of Right Ascen(r/s): -8.011762293e-09 SQRT(A) (m 1/2): 5153.584473 Right Ascen at Week(rad): -2.146688144 Argument of Perigee(rad): -0.02501557147 Mean Anom(rad): 0.4290712045 Af0(s): 0.0002728301025 Af1(s/s): -3.637979e-12 week: 352 ******** Week 352 almanac for PRN-2 ******** ID: 2 Health: 0 Eccentricity: 0.01696825027 Time of Applicability(s): 589824 Orbital Inclination(rad): 0.9639115823 Rate of Right Ascen(r/s): -7.943188008e-09 SQRT(A) (m 1/2): 5153.56543 Right Ascen at Week(rad): -2.30947811 Argument of Perigee(rad): -0.8536681735 Mean Anom(rad): 1.81379334 Af0(s): 1.055144043e-05 Af1(s/s): 7.275958e-12 week: 352 ******** Week 352 almanac for PRN-3 ******** ID: 3 Health: 0 Eccentricity: 0.006330013275 Time of Applicability(s): 589824 Orbital Inclination(rad): 0.9925359035 Rate of Right Ascen(r/s): -7.600316584e-09 SQRT(A) (m 1/2): 5153.611816 Right Ascen at Week(rad): -1.160864305 Argument of Perigee(rad): 1.211398785 Mean Anom(rad): -1.816473687 Af0(s): 0.0004755684936 Af1(s/s): -1.091394e-11 week: 352 ******** Week 352 almanac for PRN-4 ******** ID: 4 Health: 0 Eccentricity: 0.003719329834 Time of Applicability(s): 589824 Orbital Inclination(rad): 0.970448977 Rate of Right Ascen(r/s): -7.840326581e-09 SQRT(A) (m 1/2): 5153.69873 Right Ascen at Week(rad): -0.08962777106 Argument of Perigee(rad): -2.918025441 Mean Anom(rad): 1.251233225 Af0(s): 2.939329834e-05 Af1(s/s): 3.637979e-12 week: 352 ******** Week 352 almanac for PRN-5 ******** ID: 5 Health: 0 Eccentricity: 0.005368709564 Time of Applicability(s): 589824 Orbital Inclination(rad): 0.9791135716 Rate of Right Ascen(r/s): -7.726036106e-09 SQRT(A) (m 1/2): 5153.631836 Right Ascen at Week(rad): -1.219966008 Argument of Perigee(rad): 1.426574045 Mean Anom(rad): 1.847093756 Af0(s): -0.0001793744873 Af1(s/s): 0 week: 352 ******** Week 352 almanac for PRN-6 ******** ID: 6 Health: 0 Eccentricity: 0.003848552704 Time of Applicability(s): 589824 Orbital Inclination(rad): 0.9873347499 Rate of Right Ascen(r/s): -7.726036106e-09 SQRT(A) (m 1/2): 5153.560547 Right Ascen at Week(rad): -2.197606119 Argument of Perigee(rad): -0.6308436072 Mean Anom(rad): -0.4297123605 Af0(s): -0.0004748148193 Af1(s/s): -3.637979e-12 week: 352 ******** Week 352 almanac for PRN-7 ******** ID: 7 Health: 0 Eccentricity: 0.02015542984 Time of Applicability(s): 589824 Orbital Inclination(rad): 0.9507529034 Rate of Right Ascen(r/s): -7.886042771e-09 SQRT(A) (m 1/2): 5153.586914 Right Ascen at Week(rad): 0.9190825671 Argument of Perigee(rad): -2.006076109 Mean Anom(rad): -1.344476487 Af0(s): -0.0001055144043 Af1(s/s): -3.637979e-12 week: 352 ******** Week 352 almanac for PRN-8 ******** ID: 8 Health: 0 Eccentricity: 0.01138687134 Time of Applicability(s): 589824 Orbital Inclination(rad): 0.9445390828 Rate of Right Ascen(r/s): -8.194627053e-09 SQRT(A) (m 1/2): 5153.610352 Right Ascen at Week(rad): 2.96769893 Argument of Perigee(rad): 0.4982456487 Mean Anom(rad): 1.510338534 Af0(s): 0.0003994473877 Af1(s/s): -3.637979e-12 week: 352 ******** Week 352 almanac for PRN-9 ******** ID: 9 Health: 0 Eccentricity: 0.003391742706 Time of Applicability(s): 589824 Orbital Inclination(rad): 0.9645647226 Rate of Right Ascen(r/s): -7.908900866e-09 SQRT(A) (m 1/2): 5153.527344 Right Ascen at Week(rad): -0.153485339 Argument of Perigee(rad): 2.067397141 Mean Anom(rad): 2.082471798 Af0(s): 0.0006089688477 Af1(s/s): 0 week: 352 ******** Week 352 almanac for PRN-10 ******** ID: 10 Health: 0 Eccentricity: 0.01097536087 Time of Applicability(s): 589824 Orbital Inclination(rad): 0.9920864951 Rate of Right Ascen(r/s): -7.577458489e-09 SQRT(A) (m 1/2): 5153.60791 Right Ascen at Week(rad): -1.163375374 Argument of Perigee(rad): -2.268736988 Mean Anom(rad): -2.7812551 Af0(s): -0.000459741333 Af1(s/s): -3.637979e-12 week: 352 ******** Week 352 almanac for PRN-11 ******** ID: 11 Health: 0 Eccentricity: 0.002242565155 Time of Applicability(s): 589824 Orbital Inclination(rad): 0.9641752353 Rate of Right Ascen(r/s): -7.966046103e-09 SQRT(A) (m 1/2): 5153.726074 Right Ascen at Week(rad): -2.17768684 Argument of Perigee(rad): -2.250259186 Mean Anom(rad): 0.534817758 Af0(s): -0.0003783445068 Af1(s/s): 1.455192e-11 week: 352 ******** Week 352 almanac for PRN-12 ******** ID: 12 Health: 0 Eccentricity: 0.009063720703 Time of Applicability(s): 589824 Orbital Inclination(rad): 0.9589620974 Rate of Right Ascen(r/s): -7.828897533e-09 SQRT(A) (m 1/2): 5153.519043 Right Ascen at Week(rad): 2.036985298 Argument of Perigee(rad): 1.532769258 Mean Anom(rad): -1.965224508 Af0(s): -0.0004793368652 Af1(s/s): 0 week: 352 ******** Week 352 almanac for PRN-13 ******** ID: 13 Health: 0 Eccentricity: 0.009901046753 Time of Applicability(s): 589824 Orbital Inclination(rad): 0.9761414838 Rate of Right Ascen(r/s): -7.794610391e-09 SQRT(A) (m 1/2): 5153.620117 Right Ascen at Week(rad): 0.0208503043 Argument of Perigee(rad): 1.003107339 Mean Anom(rad): 1.232599628 Af0(s): 0.0005456602051 Af1(s/s): 0 week: 352 ******** Week 352 almanac for PRN-14 ******** ID: 14 Health: 0 Eccentricity: 0.006482124329 Time of Applicability(s): 589824 Orbital Inclination(rad): 0.9422680721 Rate of Right Ascen(r/s): -7.988904198e-09 SQRT(A) (m 1/2): 5153.592773 Right Ascen at Week(rad): 1.983153658 Argument of Perigee(rad): -2.763585858 Mean Anom(rad): -2.159086574 Af0(s): 0.0005750535034 Af1(s/s): 3.637979e-12 week: 352 ******** Week 352 almanac for PRN-15 ******** ID: 15 Health: 0 Eccentricity: 0.01660299301 Time of Applicability(s): 589824 Orbital Inclination(rad): 0.9423339854 Rate of Right Ascen(r/s): -8.137481816e-09 SQRT(A) (m 1/2): 5153.615234 Right Ascen at Week(rad): -0.2962298164 Argument of Perigee(rad): 1.493070015 Mean Anom(rad): 0.4993620541 Af0(s): 0.0002969476807 Af1(s/s): 3.637979e-12 week: 352 ******** Week 352 almanac for PRN-16 ******** ID: 16 Health: 0 Eccentricity: 0.01503419876 Time of Applicability(s): 589824 Orbital Inclination(rad): 0.9581291938 Rate of Right Ascen(r/s): -7.840326581e-09 SQRT(A) (m 1/2): 5153.572754 Right Ascen at Week(rad): 2.054049711 Argument of Perigee(rad): 0.920062652 Mean Anom(rad): 2.505090247 Af0(s): 0.0001462128174 Af1(s/s): 7.275958e-12 week: 352 ******** Week 352 almanac for PRN-17 ******** ID: 17 Health: 0 Eccentricity: 0.01284694672 Time of Applicability(s): 589824 Orbital Inclination(rad): 0.9602923464 Rate of Right Ascen(r/s): -8.023191341e-09 SQRT(A) (m 1/2): 5153.51123 Right Ascen at Week(rad): 3.071556845 Argument of Perigee(rad): -1.13748458 Mean Anom(rad): 1.394020771 Af0(s): -2.261022949e-05 Af1(s/s): -1.091394e-11 week: 352 ******** Week 352 almanac for PRN-18 ******** ID: 18 Health: 0 Eccentricity: 0.005689144134 Time of Applicability(s): 589824 Orbital Inclination(rad): 0.9722945476 Rate of Right Ascen(r/s): -7.874613723e-09 SQRT(A) (m 1/2): 5153.601562 Right Ascen at Week(rad): -2.201922313 Argument of Perigee(rad): -2.856458733 Mean Anom(rad): -0.5868068237 Af0(s): -0.0003587489746 Af1(s/s): 1.091394e-11 week: 352 ******** Week 352 almanac for PRN-19 ******** ID: 19 Health: 0 Eccentricity: 0.01095485687 Time of Applicability(s): 589824 Orbital Inclination(rad): 0.9594894033 Rate of Right Ascen(r/s): -8.046049436e-09 SQRT(A) (m 1/2): 5153.654297 Right Ascen at Week(rad): 3.1154633 Argument of Perigee(rad): 2.913425371 Mean Anom(rad): -3.019812332 Af0(s): 0.0005411381592 Af1(s/s): 3.637979e-12 week: 352 ******** Week 352 almanac for PRN-20 ******** ID: 20 Health: 0 Eccentricity: 0.003684043884 Time of Applicability(s): 589824 Orbital Inclination(rad): 0.9607777075 Rate of Right Ascen(r/s): -7.897471818e-09 SQRT(A) (m 1/2): 5153.615234 Right Ascen at Week(rad): -1.359217458 Argument of Perigee(rad): -2.036017197 Mean Anom(rad): -0.4026242671 Af0(s): 0.0002856425659 Af1(s/s): 0 week: 352 ******** Week 352 almanac for PRN-21 ******** ID: 21 Health: 0 Eccentricity: 0.000536441803 Time of Applicability(s): 589824 Orbital Inclination(rad): 0.9619701379 Rate of Right Ascen(r/s): -7.886042771e-09 SQRT(A) (m 1/2): 5153.688477 Right Ascen at Week(rad): -1.153085045 Argument of Perigee(rad): -0.5047171301 Mean Anom(rad): -2.08771265 Af0(s): 0.0002984550293 Af1(s/s): 7.275958e-12 week: 352 ******** Week 352 almanac for PRN-22 ******** ID: 22 Health: 0 Eccentricity: 0.01225423813 Time of Applicability(s): 589824 Orbital Inclination(rad): 0.9575659352 Rate of Right Ascen(r/s): -7.851755628e-09 SQRT(A) (m 1/2): 5153.580566 Right Ascen at Week(rad): 2.057386943 Argument of Perigee(rad): -0.9980803307 Mean Anom(rad): 2.048062841 Af0(s): -4.748148193e-05 Af1(s/s): 3.637979e-12 week: 352 ******** Week 352 almanac for PRN-23 ******** ID: 23 Health: 0 Eccentricity: 0.005996704102 Time of Applicability(s): 589824 Orbital Inclination(rad): 0.9870830812 Rate of Right Ascen(r/s): -7.634603726e-09 SQRT(A) (m 1/2): 5153.654785 Right Ascen at Week(rad): -1.195231691 Argument of Perigee(rad): -2.749490537 Mean Anom(rad): -1.680622761 Af0(s): 0.0004725537964 Af1(s/s): 3.637979e-12 week: 352 ******** Week 352 almanac for PRN-24 ******** ID: 24 Health: 0 Eccentricity: 0.01782655716 Time of Applicability(s): 589824 Orbital Inclination(rad): 0.9348019 Rate of Right Ascen(r/s): -8.068907531e-09 SQRT(A) (m 1/2): 5153.595215 Right Ascen at Week(rad): 0.811494188 Argument of Perigee(rad): 1.128449598 Mean Anom(rad): -0.3636613049 Af0(s): -0.0001326466797 Af1(s/s): 1.455192e-11 week: 352 ******** Week 352 almanac for PRN-25 ******** ID: 25 Health: 0 Eccentricity: 0.01292419434 Time of Applicability(s): 589824 Orbital Inclination(rad): 0.9472415255 Rate of Right Ascen(r/s): -7.943188008e-09 SQRT(A) (m 1/2): 5153.693848 Right Ascen at Week(rad): 1.943710577 Argument of Perigee(rad): 1.148532912 Mean Anom(rad): -2.107491864 Af0(s): 0.0003564879517 Af1(s/s): -3.637979e-12 week: 352 ******** Week 352 almanac for PRN-26 ******** ID: 26 Health: 0 Eccentricity: 0.01095724106 Time of Applicability(s): 589824 Orbital Inclination(rad): 0.9279828761 Rate of Right Ascen(r/s): -8.114623721e-09 SQRT(A) (m 1/2): 5153.634277 Right Ascen at Week(rad): 1.870118074 Argument of Perigee(rad): 0.698931981 Mean Anom(rad): -2.939864444 Af0(s): -0.0002441904785 Af1(s/s): -7.275958e-12 week: 352 ******** Week 352 almanac for PRN-27 ******** ID: 27 Health: 0 Eccentricity: 0.01413726807 Time of Applicability(s): 589824 Orbital Inclination(rad): 0.9536530858 Rate of Right Ascen(r/s): -8.114623721e-09 SQRT(A) (m 1/2): 5153.611328 Right Ascen at Week(rad): 2.999266876 Argument of Perigee(rad): 0.8646258746 Mean Anom(rad): 1.598951766 Af0(s): -1.281246338e-05 Af1(s/s): -7.275958e-12 week: 352 ******** Week 352 almanac for PRN-28 ******** ID: 28 Health: 0 Eccentricity: 0.0004115104675 Time of Applicability(s): 589824 Orbital Inclination(rad): 0.9617244613 Rate of Right Ascen(r/s): -7.806039438e-09 SQRT(A) (m 1/2): 5153.708008 Right Ascen at Week(rad): 0.8927625877 Argument of Perigee(rad): 0.3982683759 Mean Anom(rad): -1.368317979 Af0(s): -0.0004846125854 Af1(s/s): 3.637979e-12 week: 352 ******** Week 352 almanac for PRN-29 ******** ID: 29 Health: 0 Eccentricity: 0.003239631653 Time of Applicability(s): 589824 Orbital Inclination(rad): 0.962934868 Rate of Right Ascen(r/s): -8.023191341e-09 SQRT(A) (m 1/2): 5153.736328 Right Ascen at Week(rad): 3.088124286 Argument of Perigee(rad): 2.754063268 Mean Anom(rad): 1.476138552 Af0(s): -0.000312021167 Af1(s/s): 7.275958e-12 week: 352 ******** Week 352 almanac for PRN-30 ******** ID: 30 Health: 0 Eccentricity: 0.007853984833 Time of Applicability(s): 589824 Orbital Inclination(rad): 0.9360003225 Rate of Right Ascen(r/s): -8.057478483e-09 SQRT(A) (m 1/2): 5153.727051 Right Ascen at Week(rad): 0.9108239381 Argument of Perigee(rad): -2.349981045 Mean Anom(rad): -1.444157899 Af0(s): 6.632333984e-05 Af1(s/s): 1.091394e-11 week: 352 ******** Week 352 almanac for PRN-31 ******** ID: 31 Health: 0 Eccentricity: 0.01088380814 Time of Applicability(s): 589824 Orbital Inclination(rad): 0.95451595 Rate of Right Ascen(r/s): -7.863184676e-09 SQRT(A) (m 1/2): 5153.706543 Right Ascen at Week(rad): 0.9430865951 Argument of Perigee(rad): 0.9292279625 Mean Anom(rad): -2.404374071 Af0(s): -0.0001371687256 Af1(s/s): 3.637979e-12 week: 352 ******** Week 352 almanac for PRN-32 ******** ID: 32 Health: 0 Eccentricity: 0.009150028229 Time of Applicability(s): 589824 Orbital Inclination(rad): 0.9676446684 Rate of Right Ascen(r/s): -7.874613723e-09 SQRT(A) (m 1/2): 5153.657227 Right Ascen at Week(rad): -0.1366673519 Argument of Perigee(rad): -2.029959546 Mean Anom(rad): 2.213336913 Af0(s): -0.000133400354 Af1(s/s): 1.818989e-11 week: 352